When you browse on this site, cookies collect data to enhance your experience and personalize the content and advertising you see.
Visit our Privacy Policy to learn more. By continuing to use the site, you agree to this use of cookies and data.
  • In Hungary
  • List of Countries
  • For 7 days
  • Water Temperature
  • Weather Map
  • News
  • Weather Widgets
  • user-avatar
    Login

    Hourly Weather Vaymes

    Today, 23 September, Monday

    Time Temperature Precipitation Wind Pressure Humidity
    00:00 +1°C° 0.1 mm 2 mps 734 mmHg 98%
    01:00 +1°C° 0.1 mm 2 mps 734 mmHg 98%
    02:00 -1°C° 0.1 mm 2 mps 734 mmHg 98%
    03:00 -2°C° 0.1 mm 2 mps 734 mmHg 98%
    04:00 -1°C° 0 mm 2 mps 734 mmHg 96%
    05:00 -1°C° 0 mm 2 mps 734 mmHg 94%
    06:00 -1°C° 0 mm 2 mps 734 mmHg 92%
    07:00 -1°C° 0 mm 2 mps 735 mmHg 90%
    08:00 +1°C° 0 mm 2 mps 735 mmHg 88%
    09:00 +1°C° 0 mm 2 mps 735 mmHg 85%
    10:00 +1°C° 0.1 mm 2 mps 736 mmHg 84%
    11:00 +2°C° 0.1 mm 2 mps 736 mmHg 83%
    12:00 +2°C° 0.1 mm 2 mps 736 mmHg 82%
    13:00 +2°C° 0.1 mm 2 mps 736 mmHg 81%
    14:00 +1°C° 0.1 mm 3 mps 737 mmHg 81%
    15:00 +1°C° 0.1 mm 3 mps 737 mmHg 80%
    16:00 +1°C° 0 mm 2 mps 738 mmHg 85%
    17:00 -1°C° 0 mm 2 mps 738 mmHg 89%
    18:00 0°C° 0 mm 1 mps 738 mmHg 94%
    19:00 -1°C° 0 mm 1 mps 738 mmHg 94%
    20:00 -1°C° 0 mm 1 mps 739 mmHg 95%
    21:00 -1°C° 0 mm 1 mps 739 mmHg 96%
    22:00 -1°C° 0 mm 1 mps 739 mmHg 96%
    23:00 -3°C° 0 mm 2 mps 739 mmHg 97%

    Tomorrow, 24 September, Tuesday

    Time Temperature Precipitation Wind Pressure Humidity
    00:00 -4°C° 0 mm 2 mps 739 mmHg 97%
    01:00 -4°C° 0 mm 2 mps 740 mmHg 97%
    02:00 -4°C° 0 mm 2 mps 740 mmHg 97%
    03:00 -4°C° 0 mm 2 mps 740 mmHg 97%
    04:00 -4°C° 0 mm 2 mps 740 mmHg 97%
    05:00 -4°C° 0 mm 2 mps 740 mmHg 97%
    06:00 -4°C° 0 mm 2 mps 740 mmHg 97%
    07:00 -2°C° 0 mm 2 mps 740 mmHg 94%
    08:00 -1°C° 0 mm 2 mps 740 mmHg 91%
    09:00 +2°C° 0 mm 2 mps 741 mmHg 88%
    10:00 +2°C° 0.1 mm 2 mps 741 mmHg 89%
    11:00 +2°C° 0.1 mm 2 mps 741 mmHg 90%
    12:00 +2°C° 0.1 mm 2 mps 741 mmHg 92%
    13:00 +2°C° 0.1 mm 2 mps 741 mmHg 91%
    14:00 +2°C° 0.1 mm 3 mps 741 mmHg 90%
    15:00 +2°C° 0.1 mm 3 mps 741 mmHg 90%
    16:00 +1°C° 0 mm 3 mps 741 mmHg 91%
    17:00 +2°C° 0 mm 2 mps 742 mmHg 92%
    18:00 +1°C° 0 mm 2 mps 742 mmHg 94%
    19:00 +1°C° 0 mm 2 mps 742 mmHg 95%
    20:00 +1°C° 0 mm 2 mps 742 mmHg 95%
    21:00 +1°C° 0 mm 2 mps 742 mmHg 96%
    22:00 0°C° 0 mm 3 mps 742 mmHg 96%
    23:00 0°C° 0 mm 3 mps 742 mmHg 95%

    Day after tomorrow, 25 September, Wednesday

    Time Temperature Precipitation Wind Pressure Humidity
    00:00 0°C° 0 mm 3 mps 742 mmHg 95%
    01:00 0°C° 0 mm 3 mps 742 mmHg 95%
    02:00 0°C° 0 mm 3 mps 742 mmHg 96%
    03:00 0°C° 0 mm 3 mps 743 mmHg 96%
    04:00 0°C° 0 mm 3 mps 743 mmHg 96%
    05:00 0°C° 0 mm 3 mps 743 mmHg 96%
    06:00 0°C° 0 mm 3 mps 743 mmHg 96%
    07:00 0°C° 0.1 mm 3 mps 743 mmHg 94%
    08:00 0°C° 0.1 mm 3 mps 743 mmHg 92%
    09:00 +1°C° 0.1 mm 3 mps 743 mmHg 90%
    10:00 +1°C° 0.2 mm 3 mps 743 mmHg 88%
    11:00 +1°C° 0.2 mm 3 mps 744 mmHg 86%
    12:00 +2°C° 0.2 mm 3 mps 744 mmHg 83%
    13:00 +2°C° 0.2 mm 3 mps 744 mmHg 83%
    14:00 +1°C° 0.2 mm 4 mps 744 mmHg 82%
    15:00 +1°C° 0.2 mm 4 mps 744 mmHg 81%
    16:00 +1°C° 0.1 mm 3 mps 744 mmHg 85%
    17:00 0°C° 0.1 mm 3 mps 744 mmHg 88%
    18:00 0°C° 0.1 mm 3 mps 744 mmHg 92%
    19:00 -1°C° 0 mm 3 mps 744 mmHg 93%
    20:00 -1°C° 0 mm 3 mps 744 mmHg 93%
    21:00 -1°C° 0 mm 3 mps 744 mmHg 94%
    22:00 -1°C° 0 mm 3 mps 744 mmHg 94%
    23:00 -2°C° 0 mm 4 mps 744 mmHg 94%

    26 September, Thursday

    Time Temperature Precipitation Wind Pressure Humidity
    00:00 -2°C° 0 mm 4 mps 744 mmHg 94%
    01:00 -2°C° 0.1 mm 4 mps 744 mmHg 94%
    02:00 -2°C° 0.1 mm 4 mps 744 mmHg 94%
    03:00 -2°C° 0.1 mm 4 mps 744 mmHg 94%
    04:00 -2°C° 0.1 mm 4 mps 744 mmHg 94%
    05:00 -2°C° 0.1 mm 4 mps 744 mmHg 94%
    06:00 -2°C° 0.1 mm 4 mps 744 mmHg 95%
    07:00 -1°C° 0.1 mm 4 mps 744 mmHg 94%
    08:00 -1°C° 0.1 mm 4 mps 745 mmHg 94%
    09:00 -1°C° 0.1 mm 4 mps 745 mmHg 94%
    10:00 0°C° 0 mm 4 mps 745 mmHg 89%
    11:00 +1°C° 0 mm 4 mps 745 mmHg 85%
    12:00 +1°C° 0 mm 4 mps 745 mmHg 80%
    13:00 +3°C° 0 mm 4 mps 745 mmHg 79%
    14:00 +3°C° 0 mm 4 mps 745 mmHg 77%
    15:00 +3°C° 0 mm 4 mps 745 mmHg 76%
    16:00 +2°C° 0 mm 3 mps 745 mmHg 81%
    17:00 +1°C° 0 mm 3 mps 745 mmHg 86%
    18:00 +1°C° 0 mm 2 mps 744 mmHg 91%
    19:00 +1°C° 0 mm 2 mps 744 mmHg 92%
    20:00 -1°C° 0 mm 2 mps 744 mmHg 94%
    21:00 -1°C° 0 mm 2 mps 744 mmHg 95%
    22:00 -1°C° 0 mm 2 mps 744 mmHg 96%
    23:00 -1°C° 0 mm 2 mps 744 mmHg 97%

    27 September, Friday

    Time Temperature Precipitation Wind Pressure Humidity
    00:00 -1°C° 0 mm 2 mps 744 mmHg 97%
    01:00 +1°C° 0 mm 2 mps 744 mmHg 97%
    02:00 +1°C° 0 mm 2 mps 744 mmHg 97%
    03:00 +1°C° 0 mm 2 mps 744 mmHg 97%
    04:00 +1°C° 0 mm 2 mps 744 mmHg 97%
    05:00 +1°C° 0 mm 2 mps 744 mmHg 97%
    06:00 0°C° 0 mm 3 mps 744 mmHg 97%
    07:00 0°C° 0 mm 3 mps 744 mmHg 96%
    08:00 0°C° 0 mm 3 mps 744 mmHg 95%
    09:00 0°C° 0 mm 3 mps 744 mmHg 94%
    10:00 +1°C° 0.1 mm 3 mps 744 mmHg 94%
    11:00 +1°C° 0.1 mm 3 mps 745 mmHg 94%
    12:00 +1°C° 0.1 mm 3 mps 745 mmHg 94%
    13:00 +1°C° 0.1 mm 3 mps 745 mmHg 91%
    14:00 +2°C° 0.1 mm 3 mps 745 mmHg 89%
    15:00 +2°C° 0.1 mm 3 mps 746 mmHg 87%
    16:00 +2°C° 0.1 mm 2 mps 746 mmHg 88%
    17:00 +2°C° 0.1 mm 2 mps 746 mmHg 90%
    18:00 +1°C° 0.1 mm 2 mps 747 mmHg 92%
    19:00 -1°C° 0 mm 2 mps 747 mmHg 93%
    20:00 -2°C° 0 mm 2 mps 748 mmHg 95%
    21:00 -3°C° 0 mm 2 mps 748 mmHg 96%
    22:00 -3°C° 0 mm 2 mps 748 mmHg 96%
    23:00 -4°C° 0 mm 2 mps 749 mmHg 96%

    28 September, Saturday

    Time Temperature Precipitation Wind Pressure Humidity
    00:00 -4°C° 0 mm 2 mps 749 mmHg 96%
    01:00 -2°C° 0 mm 1 mps 750 mmHg 96%
    02:00 -2°C° 0 mm 1 mps 750 mmHg 96%
    03:00 -2°C° 0 mm 1 mps 750 mmHg 96%
    04:00 -2°C° 0 mm 1 mps 751 mmHg 96%
    05:00 -2°C° 0 mm 1 mps 751 mmHg 96%
    06:00 -2°C° 0 mm 1 mps 751 mmHg 96%
    07:00 0°C° 0 mm 1 mps 751 mmHg 90%
    08:00 +1°C° 0 mm 1 mps 751 mmHg 84%
    09:00 +3°C° 0 mm 1 mps 752 mmHg 78%
    10:00 +4°C° 0 mm 1 mps 752 mmHg 73%
    11:00 +5°C° 0 mm 1 mps 752 mmHg 69%
    12:00 +7°C° 0 mm 1 mps 752 mmHg 64%
    13:00 +6°C° 0 mm 1 mps 752 mmHg 66%
    14:00 +5°C° 0 mm 2 mps 752 mmHg 67%
    15:00 +5°C° 0 mm 2 mps 752 mmHg 68%
    16:00 +5°C° 0 mm 1 mps 752 mmHg 72%
    17:00 +5°C° 0 mm 1 mps 752 mmHg 77%
    18:00 +4°C° 0 mm 1 mps 752 mmHg 81%
    19:00 +4°C° 0 mm 1 mps 752 mmHg 82%
    20:00 +4°C° 0 mm 1 mps 752 mmHg 83%
    21:00 +3°C° 0 mm 1 mps 752 mmHg 83%
    22:00 +3°C° 0 mm 2 mps 752 mmHg 86%
    23:00 +3°C° 0 mm 2 mps 752 mmHg 88%
    Show more